Location: Gleizolles
(44.4833°N, 6.7667°E)
Time: 10:08:10
(UTC+00:00)

Tiros 1 - Pass Details

Date: 27 June 2024
Orbit: 624 x 656 km, 48.4° (Epoch: 20 July)

Event Time Altitude Azimuth Distance (km) Brightness Sun altitude
Rises 23:21:46 0° 266° (W) 2,898 10.5 -22.2°
Reaches altitude 10° 23:24:06 10° 271° (W) 1,993 9.7 -22.2°
Maximum altitude 23:28:37 57° 350° (N) 741 7.7 -22.2°
Drops below altitude 10° 23:33:10 10° 70° (ENE) 2,005 9.9 -22.2°
Sets 23:35:32 0° 74° (ENE) 2,918 10.7 -22.3°
